This is the latest recevied weather packets stored in our database for station/object DO7ZT-10. If no packets are shown the sender has not sent any weather packets the latest 10 day(s).
| Time | Temp. | Humidity | Pressure | Rain* | Wind** | Luminosity | Snow |
|---|---|---|---|---|---|---|---|
| 1777340036 | 6.67° C | 60% | 1021.9 hPa | - | - | - | - |
| 1777339136 | 7.22° C | 58% | 1021.9 hPa | - | - | - | - |
| 1777338235 | 7.22° C | 55% | 1021.8 hPa | - | - | - | - |
| 1777337335 | 7.22° C | 56% | 1021.7 hPa | - | - | - | - |
| 1777336435 | 7.22° C | 55% | 1021.7 hPa | - | - | - | - |
| 1777335535 | 7.78° C | 55% | 1021.8 hPa | - | - | - | - |
| 1777334635 | 8.33° C | 54% | 1021.6 hPa | - | - | - | - |
| 1777333735 | 8.33° C | 53% | 1021.4 hPa | - | - | - | - |
| 1777332835 | 8.33° C | 53% | 1021.4 hPa | - | - | - | - |
| 1777331935 | 8.89° C | 53% | 1021.5 hPa | - | - | - | - |
| 1777331035 | 8.33° C | 55% | 1021.4 hPa | - | - | - | - |
| 1777330135 | 8.33° C | 64% | 1021.2 hPa | - | - | - | - |
| 1777329235 | 7.78° C | 67% | 1021.2 hPa | - | - | - | - |
| 1777328335 | 7.78° C | 66% | 1021.2 hPa | - | - | - | - |
| 1777327435 | 7.22° C | 64% | 1021.3 hPa | - | - | - | - |
| 1777326535 | 6.67° C | 68% | 1021.2 hPa | - | - | - | - |
| 1777325634 | 7.22° C | 67% | 1021.1 hPa | - | - | - | - |
| 1777324734 | 7.22° C | 66% | 1021.2 hPa | - | - | - | - |
| 1777323834 | 7.22° C | 63% | 1021.2 hPa | - | - | - | - |
| 1777322934 | 7.22° C | 64% | 1021.2 hPa | - | - | - | - |
| 1777322034 | 7.22° C | 62% | 1021.2 hPa | - | - | - | - |
| 1777321134 | 7.22° C | 64% | 1021.2 hPa | - | - | - | - |
| 1777320234 | 7.78° C | 62% | 1021.2 hPa | - | - | - | - |
| 1777319334 | 7.78° C | 59% | 1021.3 hPa | - | - | - | - |
| 1777318434 | 7.78° C | 62% | 1021.2 hPa | - | - | - | - |
* Rain since midnight (hover to see other rain measurements)
** Current wind speed in m/s (hover to see current wind gust speed)